TimeEDT,TemperatureF,Dew PointF,Humidity,Sea Level PressureIn,VisibilityMPH,Wind Direction,Wind SpeedMPH,Gust SpeedMPH,PrecipitationIn,Events,Conditions,WindDirDegrees,DateUTC
12:15 AM,57.4,32.0,38,30.10,10.0,SSE,6.9,-,N/A,,Clear,160,2013-05-06 04:15:00
12:35 AM,57.0,29.3,35,30.10,10.0,South,4.6,-,N/A,,Clear,170,2013-05-06 04:35:00
12:55 AM,53.6,30.2,41,30.11,10.0,East,3.5,-,N/A,,Clear,90,2013-05-06 04:55:00
1:15 AM,54.5,30.6,40,30.11,10.0,ESE,3.5,-,N/A,,Clear,120,2013-05-06 05:15:00
1:34 AM,55.4,27.5,34,30.10,10.0,South,5.8,-,N/A,,Clear,170,2013-05-06 05:34:00
1:55 AM,51.6,30.7,45,30.10,10.0,Calm,Calm,-,N/A,,Clear,0,2013-05-06 05:55:00
2:35 AM,48.4,33.6,57,30.10,10.0,Calm,Calm,-,N/A,,Clear,0,2013-05-06 06:35:00
2:54 AM,44.8,32.9,63,30.10,10.0,SSW,4.6,-,N/A,,Clear,200,2013-05-06 06:54:00
3:15 AM,51.1,32.4,49,30.09,10.0,South,3.5,-,N/A,,Clear,190,2013-05-06 07:15:00
3:35 AM,43.3,32.9,67,30.09,10.0,South,4.6,-,N/A,,Clear,180,2013-05-06 07:35:00
3:55 AM,49.3,33.4,54,30.09,10.0,South,4.6,-,N/A,,Clear,180,2013-05-06 07:55:00
4:15 AM,48.7,34.2,57,30.09,10.0,South,4.6,-,N/A,,Clear,170,2013-05-06 08:15:00
4:34 AM,43.9,34.3,69,30.09,10.0,South,3.5,-,N/A,,Clear,190,2013-05-06 08:34:00
4:55 AM,44.2,35.4,71,30.09,10.0,Calm,Calm,-,N/A,,Clear,0,2013-05-06 08:55:00
5:15 AM,41.9,34.5,75,30.09,10.0,South,4.6,-,N/A,,Clear,180,2013-05-06 09:15:00
5:35 AM,43.2,35.4,74,30.10,10.0,Calm,Calm,-,N/A,,Clear,0,2013-05-06 09:35:00
5:55 AM,42.3,34.2,73,30.10,10.0,South,3.5,-,N/A,,Clear,180,2013-05-06 09:55:00
6:15 AM,43.2,35.8,75,30.10,10.0,Calm,Calm,-,N/A,,Clear,0,2013-05-06 10:15:00
6:35 AM,41.0,34.3,77,30.10,10.0,Calm,Calm,-,N/A,,Clear,0,2013-05-06 10:35:00
6:55 AM,43.0,36.0,76,30.11,10.0,Calm,Calm,-,N/A,,Clear,0,2013-05-06 10:55:00
7:12 AM,46.9,39.6,76,30.11,10.0,South,3.5,-,N/A,,Clear,180,2013-05-06 11:12:00
7:35 AM,54.0,41.7,63,30.11,10.0,Calm,Calm,-,N/A,,Clear,0,2013-05-06 11:35:00
7:55 AM,55.4,41.2,59,30.12,10.0,Calm,Calm,-,N/A,,Clear,0,2013-05-06 11:55:00
8:15 AM,55.2,43.2,64,30.12,10.0,NNE,3.5,-,N/A,,Clear,20,2013-05-06 12:15:00
8:35 AM,54.1,42.4,65,30.13,10.0,Calm,Calm,-,N/A,,Clear,0,2013-05-06 12:35:00
8:55 AM,53.4,41.7,65,30.13,10.0,Calm,Calm,-,N/A,,Clear,0,2013-05-06 12:55:00
9:15 AM,55.6,41.4,59,30.13,10.0,North,3.5,-,N/A,,Clear,10,2013-05-06 13:15:00
9:35 AM,55.0,41.4,60,30.13,10.0,Calm,Calm,-,N/A,,Clear,0,2013-05-06 13:35:00
9:55 AM,55.9,40.3,56,30.13,10.0,NNE,3.5,-,N/A,,Clear,20,2013-05-06 13:55:00
10:15 AM,58.1,41.9,55,30.13,10.0,NE,4.6,-,N/A,,Clear,50,2013-05-06 14:15:00
10:34 AM,50.2,40.3,69,30.13,10.0,North,4.6,-,N/A,,Clear,10,2013-05-06 14:34:00
10:55 AM,51.1,40.6,67,30.13,10.0,North,5.8,-,N/A,,Clear,10,2013-05-06 14:55:00
11:15 AM,51.3,40.8,67,30.13,10.0,NNE,3.5,-,N/A,,Clear,30,2013-05-06 15:15:00
11:35 AM,52.9,40.1,62,30.13,10.0,NE,4.6,-,N/A,,Clear,40,2013-05-06 15:35:00
11:55 AM,53.6,39.7,59,30.13,10.0,NE,5.8,-,N/A,,Clear,40,2013-05-06 15:55:00
12:15 PM,53.6,40.8,62,30.12,10.0,NE,5.8,-,N/A,,Clear,40,2013-05-06 16:15:00
12:35 PM,55.9,41.4,58,30.12,10.0,ENE,6.9,-,N/A,,Clear,70,2013-05-06 16:35:00
12:55 PM,53.4,41.0,63,30.12,10.0,NNE,6.9,-,N/A,,Clear,30,2013-05-06 16:55:00
1:14 PM,53.1,41.0,64,30.11,10.0,NE,5.8,-,N/A,,Clear,40,2013-05-06 17:14:00
1:35 PM,53.2,42.4,67,30.11,10.0,North,4.6,-,N/A,,Clear,10,2013-05-06 17:35:00
1:55 PM,53.2,42.4,67,30.10,10.0,North,4.6,-,N/A,,Clear,10,2013-05-06 17:55:00
2:15 PM,53.2,41.9,65,30.10,10.0,North,4.6,-,N/A,,Clear,360,2013-05-06 18:15:00
2:35 PM,54.3,41.4,62,30.10,10.0,Calm,Calm,-,N/A,,Clear,0,2013-05-06 18:35:00
2:55 PM,54.1,41.0,61,30.09,10.0,North,5.8,-,N/A,,Clear,10,2013-05-06 18:55:00
3:15 PM,53.1,40.8,63,30.08,10.0,NNE,5.8,-,N/A,,Clear,20,2013-05-06 19:15:00
3:35 PM,52.3,40.5,64,30.07,10.0,NNE,5.8,-,N/A,,Clear,20,2013-05-06 19:35:00
3:54 PM,52.7,40.6,64,30.07,10.0,NNE,5.8,-,N/A,,Clear,30,2013-05-06 19:54:00
4:15 PM,55.0,41.2,60,30.06,10.0,NNE,5.8,-,N/A,,Clear,20,2013-05-06 20:15:00
4:35 PM,59.2,41.4,52,30.05,10.0,NE,9.2,-,N/A,,Clear,50,2013-05-06 20:35:00
4:55 PM,61.7,41.7,48,30.05,10.0,NE,9.2,-,N/A,,Clear,50,2013-05-06 20:55:00
5:15 PM,66.2,40.5,39,30.04,10.0,ENE,9.2,-,N/A,,Clear,60,2013-05-06 21:15:00
5:35 PM,68.7,38.3,33,30.04,10.0,ENE,8.1,-,N/A,,Clear,70,2013-05-06 21:35:00
5:55 PM,66.7,40.1,38,30.04,10.0,ENE,8.1,-,N/A,,Clear,60,2013-05-06 21:55:00
6:15 PM,65.5,41.0,41,30.03,10.0,ENE,6.9,-,N/A,,Clear,60,2013-05-06 22:15:00
6:55 PM,61.0,41.2,48,30.03,10.0,NE,4.6,-,N/A,,Clear,40,2013-05-06 22:55:00
7:15 PM,54.3,41.7,62,30.03,10.0,NNE,4.6,-,N/A,,Clear,20,2013-05-06 23:15:00
7:34 PM,51.6,40.8,67,30.04,10.0,North,3.5,-,N/A,,Clear,360,2013-05-06 23:34:00
7:55 PM,49.1,40.1,71,30.04,10.0,Calm,Calm,-,N/A,,Clear,0,2013-05-06 23:55:00
8:15 PM,48.6,39.9,72,30.05,10.0,Calm,Calm,-,N/A,,Clear,0,2013-05-07 00:15:00
8:35 PM,47.8,39.4,72,30.05,7.0,Calm,Calm,-,N/A,,Clear,0,2013-05-07 00:35:00
9:15 PM,46.2,39.0,76,30.06,10.0,Calm,Calm,-,N/A,,Clear,0,2013-05-07 01:15:00
9:35 PM,45.3,39.2,79,30.06,10.0,Calm,Calm,-,N/A,,Clear,0,2013-05-07 01:35:00
9:55 PM,46.8,39.6,76,30.07,10.0,Calm,Calm,-,N/A,,Clear,0,2013-05-07 01:55:00
10:15 PM,45.0,39.4,81,30.07,10.0,Calm,Calm,-,N/A,,Clear,0,2013-05-07 02:15:00
10:35 PM,44.6,39.4,82,30.07,10.0,Calm,Calm,-,N/A,,Clear,0,2013-05-07 02:35:00
10:55 PM,44.1,39.7,85,30.07,10.0,Calm,Calm,-,N/A,,Clear,0,2013-05-07 02:55:00
11:14 PM,45.0,40.8,85,30.07,10.0,Calm,Calm,-,N/A,,Clear,0,2013-05-07 03:14:00
11:35 PM,44.6,40.6,86,30.07,10.0,Calm,Calm,-,N/A,,Clear,0,2013-05-07 03:35:00
11:55 PM,43.5,39.7,87,30.08,10.0,Calm,Calm,-,N/A,,Clear,0,2013-05-07 03:55:00